Location: Fredericksburg
(30.2750°N, 98.8720°W)
Time: 14:22:35
(UTC-05:00)

Daily predictions for brighter satellites

Satellite Brightness Start Highest point End
(mag) Time Altitude Azimuth Time Altitude Azimuth Time Altitude Azimuth
Cosmos 2279 Rocket 4.0 20:55:52 10° S 21:02:00 69° E 21:08:08 10° NNE
Cosmos 2056 Rocket 4.0 20:59:55 10° N 21:04:49 43° ENE 21:09:46 10° SE
Cosmos 2058 Rocket 3.0 21:02:10 10° N 21:06:35 80° E 21:10:56 10° S
Hubble Space Telescope 1.2 21:04:04 10° W 21:08:05 51° SSW 21:12:05 10° ESE
Cosmos 1805 3.4 21:04:25 10° N 21:08:19 81° W 21:12:13 10° S
Centaur AC-125 3.8 21:03:51 10° SW 21:08:41 23° S 21:11:01 10° ESE
Cosmos 1624 Rocket 4.3 21:04:30 10° N 21:09:42 52° ENE 21:14:51 10° SSE
SJ-6B 2.9 21:08:59 10° S 21:12:49 82° WSW 21:16:47 10° NNW
Cosmos 972 Rocket 4.0 21:10:04 10° SSW 21:15:01 85° WNW 21:19:56 10° NNE
H-2A R/B 4.1 21:13:57 10° E 21:15:24 11° ENE 21:16:52 10° NE
Cosmos 2228 3.5 21:11:35 10° NNW 21:15:57 67° W 21:20:17 10° S
Cosmos 2180 Rocket 4.5 21:15:35 10° S 21:21:47 81° E 21:27:57 10° N
Cosmos 1400 Rocket 3.3 21:18:41 10° SSE 21:22:31 41° E 21:26:18 10° NNE
Aureole 1 Rocket 3.4 21:21:23 10° SSE 21:23:49 23° E 21:26:27 10° NE
Cosmos 1943 3.8 21:19:09 10° N 21:24:29 41° ENE 21:29:21 12° SE
NOSS 2-3 (D) 4.4 21:23:23 10° SW 21:27:44 58° WNW 21:32:33 10° NNE
ERS-2 2.9 21:25:05 12° SE 21:28:10 34° ENE 21:31:31 10° N
Cosmos 1655 Rocket 4.0 21:23:43 10° N 21:29:58 74° E 21:36:09 10° S
Thor Agena Rocket 3.8 21:29:46 10° N 21:34:50 72° WNW 21:39:51 10° SSW
Intercosmos 25 3.8 21:33:10 10° SSW 21:36:15 52° W 21:39:43 10° N
ARGOS 4.5 21:32:46 13° ESE 21:36:17 24° ENE 21:40:32 10° NNE
Cosmos 1470 2.7 21:38:42 10° N 21:42:36 77° E 21:46:13 12° S
NOAA 11 4.2 21:37:20 10° SSE 21:42:41 67° ENE 21:48:03 10° N
Cosmos 1844 Rocket 3.5 21:40:24 10° SSE 21:45:15 30° ESE 21:50:07 10° NE
SJ-11-01 4.3 21:40:45 10° SSE 21:45:29 86° ENE 21:50:15 10° N
Cosmos 2266 Rocket 4.3 21:40:05 10° N 21:46:16 50° E 21:51:14 15° SSE
SEDSat Delta rocket 4.5 21:50:44 10° SSW 21:54:37 21° SSE 21:54:57 21° SSE
ATLAS 2AS CENTAUR R/B 3.0 21:49:07 10° S 21:56:29 58° ESE 22:04:20 10° NE
Meteor 2-5 Rocket 3.8 21:50:55 10° S 21:56:48 67° E 22:02:41 10° NNE
Cosmos 1939 Rocket 4.5 21:57:46 10° SSW 22:01:29 33° W 22:05:11 10° NNW
Centaur D-1A AC-35 2.8 21:56:58 10° WSW 22:02:10 34° S 22:03:10 28° SE
USA 186 4.3 22:00:48 10° SSW 22:03:21 20° W 22:05:51 10° NW
CZ-3 Stage 3 4.5 22:01:34 10° SW 22:05:22 20° S 22:05:22 20° S
Lacrosse 5 2.5 22:01:59 10° SW 22:06:57 59° NW 22:11:57 10° NNE
Cosmos 1238 Rocket 2.6 22:08:13 38° E 22:08:13 38° E 22:10:49 10° NNE
ERS-1 Rocket 4.2 22:06:48 22° E 22:08:25 26° ENE 22:12:34 10° NNE
BREEZE-M R/B 1.9 22:06:00 10° NW 22:08:52 56° NE 22:09:06 53° ENE
Iridium 4 Rocket 3.7 22:05:06 14° S 22:10:09 75° E 22:15:38 10° N
Cosmos 1607 3.9 22:06:09 10° NNW 22:12:31 86° ENE 22:16:10 27° SSE
Cosmos 1048 Rocket 4.2 22:10:36 10° SSW 22:15:51 73° WNW 22:21:12 10° NNE
Cosmos-2242 4.0 22:14:42 10° NNE 22:18:33 29° E 22:18:55 29° E
SL-8 R/B 4.4 22:21:54 10° WSW 22:26:38 57° NW 22:31:23 10° NE
Palapa 6 Rocket 4.2 22:22:26 10° WSW 22:27:43 41° S 22:29:20 35° SE
USA 215 3.3 22:24:54 28° SSE 22:28:33 71° SW 22:35:05 10° NW
OAO 3 Rocket 4.0 22:23:49 10° W 22:28:38 50° N 22:32:33 15° ENE
Cosmos 1953 Rocket 3.5 22:26:37 27° S 22:28:55 81° W 22:33:18 10° N
Resurs 01 Rocket 3.5 22:26:01 10° SSW 22:29:41 26° W 22:33:24 10° NW
Cosmos 1315 Rocket 3.4 22:27:05 18° SSW 22:29:55 56° W 22:33:56 10° N
Meteor 1-16 Rocket 4.3 22:25:26 10° NNW 22:31:00 76° W 22:34:20 26° S
In-Cosmos 22 4.3 22:29:11 14° SSW 22:33:57 72° W 22:39:33 10° N
Cosmos 1758 Rocket 4.3 22:31:05 15° SSW 22:34:34 53° W 22:38:55 10° N
Cosmos 1932 4.4 22:28:51 10° NNW 22:35:02 70° ENE 22:37:19 40° SE
Aurora 2 Rocket 4.1 22:28:30 10° WSW 22:35:02 52° SSE 22:39:46 27° ESE
Helios 1A 4.3 22:36:24 25° ENE 22:36:24 25° ENE 22:39:33 10° NNE
Cosmos 1452 Rocket 4.0 22:37:19 10° NNW 22:42:28 55° WSW 22:44:44 31° SSW
Cosmos 1674 2.8 22:43:16 62° NE 22:43:16 62° NE 22:46:39 10° N
SL-08 RB Rocket 3.6 22:41:54 54° SSE 22:42:59 89° ENE 22:47:39 10° NNW
Cosmos 1420 Rocket 4.3 22:39:43 10° NNW 22:44:49 60° WSW 22:46:43 37° SSW
USA 245 4.4 22:44:01 45° SE 22:45:53 70° ENE 22:52:14 10° N
MetOp-B 4.1 22:46:41 44° S 22:48:27 82° WSW 22:53:50 10° NNW
Hubble Space Telescope 2.7 22:45:52 10° WSW 22:47:46 18° SW 22:47:46 18° SW
Cosmos 1417 Rocket 4.4 22:47:03 39° SSE 22:49:31 73° E 22:55:49 10° N
Cosmos 1437 4.0 22:49:15 10° N 22:51:19 37° N 22:51:19 37° N
CSL-04 DEB 4.5 22:54:07 64° NNE 22:54:07 64° NNE 22:57:36 10° N
SPOT 1/Viking Rocket 3.9 22:53:26 46° E 22:53:47 47° ENE 22:58:41 10° N
H-2A R/B 2.2 22:52:28 45° S 22:54:03 71° WSW 22:59:24 10° NNW
Helios 1B rocket 3.6 22:51:53 10° NNE 22:54:22 32° NE 22:54:22 32° NE
Cosmos 1110 Rocket 4.4 22:57:51 10° N 23:02:49 47° ENE 23:02:49 47° ENE
Cosmos 2278 Rocket 2.7 23:05:20 42° ENE 23:05:20 42° ENE 23:09:45 10° NNE
CZ-3 Stage 3 4.2 23:00:34 10° W 23:05:02 89° S 23:35:19 10° E
Terra 3.0 23:10:29 32° NE 23:10:29 32° NE 23:13:59 10° N
Cosmos 1745 Rocket 4.1 23:05:41 10° N 23:11:50 53° E 23:12:13 52° E
Cosmos 1726 3.7 23:09:21 10° N 23:11:29 31° NNE 23:11:29 31° NNE
Cosmos 921 Rocket 3.4 23:10:10 10° N 23:13:56 60° NNE 23:13:56 60° NNE
Cosmos 1346 Rocket 3.7 23:11:50 10° NNW 23:15:14 47° WNW 23:15:14 47° WNW
ARGOS 4.4 23:14:17 26° SW 23:16:16 33° W 23:21:09 10° NW
Cosmos 1331 Rocket 4.2 23:13:03 10° N 23:17:50 58° NE 23:17:50 58° NE
COSMOS 2406 3.6 23:14:00 10° N 23:19:32 48° ENE 23:19:32 48° ENE
SL-08 R/B 4.3 23:13:37 10° N 23:19:47 82° E 23:20:28 71° SSE
Meteor 2-10 4.1 23:16:20 10° N 23:21:35 70° ENE 23:21:35 70° ENE
BREEZE-M DEB (TANK) 4.4 23:07:06 10° SW 23:22:46 85° SE 23:27:23 10° NE
USA 238 DEB 4.1 23:19:19 10° NNW 23:26:21 54° ENE 23:27:33 49° E
USA 238 4.1 23:19:26 10° NNW 23:26:26 54° ENE 23:27:39 49° E
ATLAS 3B R/B 3.3 23:23:23 10° NNW 23:29:32 40° NE 23:30:17 39° ENE
S3M 4.3 23:29:42 47° SW 23:31:22 64° W 23:37:42 10° N
CZ-2C R/B 3.6 23:34:52 55° ENE 23:34:52 55° ENE 23:40:11 10° N
Meteor 2-13 Rocket 4.3 23:31:14 10° N 23:37:12 79° ENE 23:37:12 79° ENE
Cosmos 1461 4.4 23:39:29 35° NNE 23:39:29 35° NNE 23:42:18 10° NNE
SPOT 5 3.5 23:38:33 53° W 23:38:33 53° W 23:43:16 10° NNW
Nimbus 7 Rocket 4.3 23:32:13 10° NNE 23:38:08 82° ENE 23:38:08 82° ENE
Cosmos 2251 Rocket 3.8 23:40:03 63° WNW 23:40:03 63° WNW 23:45:21 10° N
Cosmos 724 4.3 23:35:35 10° NNW 23:41:30 84° WNW 23:41:30 84° WNW
ATLAS 3B CENTAUR R/B 3.4 23:33:47 10° WSW 23:48:46 57° S 23:48:46 57° S
ATLAS 5 CENTAUR R/B 3.7 23:54:46 20° NNE 23:54:46 20° NNE 23:56:17 10° NNE
